Index of /20260502/WXO-DD/model_rdps/10km/18/018
Name Last modified Size Description
Parent Directory -
20260502T18Z_MSC_RDPS_AbsoluteVorticity_IsbL-0250_RLatLon0.09_PT018H.grib2 2026-05-02 20:43 619K
20260502T18Z_MSC_RDPS_AbsoluteVorticity_IsbL-0500_RLatLon0.09_PT018H.grib2 2026-05-02 20:43 566K
20260502T18Z_MSC_RDPS_AbsoluteVorticity_IsbL-0700_RLatLon0.09_PT018H.grib2 2026-05-02 20:43 624K
20260502T18Z_MSC_RDPS_AbsoluteVorticity_IsbL-0850_RLatLon0.09_PT018H.grib2 2026-05-02 20:43 791K
20260502T18Z_MSC_RDPS_AirTemp_AGL-120m_RLatLon0.09_PT018H.grib2 2026-05-02 20:43 382K
20260502T18Z_MSC_RDPS_AirTemp_AGL-2m_RLatLon0.09_PT018H.grib2 2026-05-02 20:43 630K
20260502T18Z_MSC_RDPS_AirTemp_AGL-40m_RLatLon0.09_PT018H.grib2 2026-05-02 20:43 400K
20260502T18Z_MSC_RDPS_AirTemp_AGL-80m_RLatLon0.09_PT018H.grib2 2026-05-02 20:43 390K
20260502T18Z_MSC_RDPS_AirTemp_IsbL-0001_RLatLon0.09_PT018H.grib2 2026-05-02 20:43 305K
20260502T18Z_MSC_RDPS_AirTemp_IsbL-0005_RLatLon0.09_PT018H.grib2 2026-05-02 20:43 281K
20260502T18Z_MSC_RDPS_AirTemp_IsbL-0010_RLatLon0.09_PT018H.grib2 2026-05-02 20:43 293K
20260502T18Z_MSC_RDPS_AirTemp_IsbL-0020_RLatLon0.09_PT018H.grib2 2026-05-02 20:43 406K
20260502T18Z_MSC_RDPS_AirTemp_IsbL-0030_RLatLon0.09_PT018H.grib2 2026-05-02 20:43 334K
20260502T18Z_MSC_RDPS_AirTemp_IsbL-0050_RLatLon0.09_PT018H.grib2 2026-05-02 20:43 313K
20260502T18Z_MSC_RDPS_AirTemp_IsbL-0100_RLatLon0.09_PT018H.grib2 2026-05-02 20:43 392K
20260502T18Z_MSC_RDPS_AirTemp_IsbL-0150_RLatLon0.09_PT018H.grib2 2026-05-02 20:43 419K
20260502T18Z_MSC_RDPS_AirTemp_IsbL-0175_RLatLon0.09_PT018H.grib2 2026-05-02 20:43 408K
20260502T18Z_MSC_RDPS_AirTemp_IsbL-0200_RLatLon0.09_PT018H.grib2 2026-05-02 20:43 415K
20260502T18Z_MSC_RDPS_AirTemp_IsbL-0225_RLatLon0.09_PT018H.grib2 2026-05-02 20:43 419K
20260502T18Z_MSC_RDPS_AirTemp_IsbL-0250_RLatLon0.09_PT018H.grib2 2026-05-02 20:43 426K
20260502T18Z_MSC_RDPS_AirTemp_IsbL-0275_RLatLon0.09_PT018H.grib2 2026-05-02 20:43 407K
20260502T18Z_MSC_RDPS_AirTemp_IsbL-0300_RLatLon0.09_PT018H.grib2 2026-05-02 20:43 414K
20260502T18Z_MSC_RDPS_AirTemp_IsbL-0350_RLatLon0.09_PT018H.grib2 2026-05-02 20:43 427K
20260502T18Z_MSC_RDPS_AirTemp_IsbL-0400_RLatLon0.09_PT018H.grib2 2026-05-02 20:43 428K
20260502T18Z_MSC_RDPS_AirTemp_IsbL-0450_RLatLon0.09_PT018H.grib2 2026-05-02 20:43 436K
20260502T18Z_MSC_RDPS_AirTemp_IsbL-0500_RLatLon0.09_PT018H.grib2 2026-05-02 20:43 412K
20260502T18Z_MSC_RDPS_AirTemp_IsbL-0550_RLatLon0.09_PT018H.grib2 2026-05-02 20:43 429K
20260502T18Z_MSC_RDPS_AirTemp_IsbL-0600_RLatLon0.09_PT018H.grib2 2026-05-02 20:43 444K
20260502T18Z_MSC_RDPS_AirTemp_IsbL-0650_RLatLon0.09_PT018H.grib2 2026-05-02 20:43 458K
20260502T18Z_MSC_RDPS_AirTemp_IsbL-0700_RLatLon0.09_PT018H.grib2 2026-05-02 20:43 482K
20260502T18Z_MSC_RDPS_AirTemp_IsbL-0750_RLatLon0.09_PT018H.grib2 2026-05-02 20:43 523K
20260502T18Z_MSC_RDPS_AirTemp_IsbL-0800_RLatLon0.09_PT018H.grib2 2026-05-02 20:43 574K
20260502T18Z_MSC_RDPS_AirTemp_IsbL-0850_RLatLon0.09_PT018H.grib2 2026-05-02 20:43 633K
20260502T18Z_MSC_RDPS_AirTemp_IsbL-0875_RLatLon0.09_PT018H.grib2 2026-05-02 20:43 658K
20260502T18Z_MSC_RDPS_AirTemp_IsbL-0900_RLatLon0.09_PT018H.grib2 2026-05-02 20:43 667K
20260502T18Z_MSC_RDPS_AirTemp_IsbL-0925_RLatLon0.09_PT018H.grib2 2026-05-02 20:43 661K
20260502T18Z_MSC_RDPS_AirTemp_IsbL-0950_RLatLon0.09_PT018H.grib2 2026-05-02 20:43 662K
20260502T18Z_MSC_RDPS_AirTemp_IsbL-0970_RLatLon0.09_PT018H.grib2 2026-05-02 20:43 522K
20260502T18Z_MSC_RDPS_AirTemp_IsbL-0985_RLatLon0.09_PT018H.grib2 2026-05-02 20:43 511K
20260502T18Z_MSC_RDPS_AirTemp_IsbL-1000_RLatLon0.09_PT018H.grib2 2026-05-02 20:43 496K
20260502T18Z_MSC_RDPS_AirTemp_IsbL-1015_RLatLon0.09_PT018H.grib2 2026-05-02 20:43 494K
20260502T18Z_MSC_RDPS_Albedo_Sfc_RLatLon0.09_PT018H.grib2 2026-05-02 20:43 152K
20260502T18Z_MSC_RDPS_CAPE_Sfc_RLatLon0.09_PT018H.grib2 2026-05-02 20:43 1.7M
20260502T18Z_MSC_RDPS_CIN_Sfc_RLatLon0.09_PT018H.grib2 2026-05-02 20:43 1.1M
20260502T18Z_MSC_RDPS_CloudWater_EAtm_RLatLon0.09_PT018H.grib2 2026-05-02 20:43 219K
20260502T18Z_MSC_RDPS_ConvectivePrecip-Accum_Sfc_RLatLon0.09_PT018H.grib2 2026-05-02 20:43 761K
20260502T18Z_MSC_RDPS_DewPointDepression_AGL-2m_RLatLon0.09_PT018H.grib2 2026-05-02 20:43 404K
20260502T18Z_MSC_RDPS_DewPointDepression_IsbL-0001_RLatLon0.09_PT018H.grib2 2026-05-02 20:43 193
20260502T18Z_MSC_RDPS_DewPointDepression_IsbL-0005_RLatLon0.09_PT018H.grib2 2026-05-02 20:43 193
20260502T18Z_MSC_RDPS_DewPointDepression_IsbL-0010_RLatLon0.09_PT018H.grib2 2026-05-02 20:43 193
20260502T18Z_MSC_RDPS_DewPointDepression_IsbL-0020_RLatLon0.09_PT018H.grib2 2026-05-02 20:43 193
20260502T18Z_MSC_RDPS_DewPointDepression_IsbL-0030_RLatLon0.09_PT018H.grib2 2026-05-02 20:43 193
20260502T18Z_MSC_RDPS_DewPointDepression_IsbL-0050_RLatLon0.09_PT018H.grib2 2026-05-02 20:43 105K
20260502T18Z_MSC_RDPS_DewPointDepression_IsbL-0100_RLatLon0.09_PT018H.grib2 2026-05-02 20:43 118K
20260502T18Z_MSC_RDPS_DewPointDepression_IsbL-0150_RLatLon0.09_PT018H.grib2 2026-05-02 20:43 150K
20260502T18Z_MSC_RDPS_DewPointDepression_IsbL-0175_RLatLon0.09_PT018H.grib2 2026-05-02 20:43 186K
20260502T18Z_MSC_RDPS_DewPointDepression_IsbL-0200_RLatLon0.09_PT018H.grib2 2026-05-02 20:43 221K
20260502T18Z_MSC_RDPS_DewPointDepression_IsbL-0225_RLatLon0.09_PT018H.grib2 2026-05-02 20:43 260K
20260502T18Z_MSC_RDPS_DewPointDepression_IsbL-0250_RLatLon0.09_PT018H.grib2 2026-05-02 20:43 296K
20260502T18Z_MSC_RDPS_DewPointDepression_IsbL-0275_RLatLon0.09_PT018H.grib2 2026-05-02 20:43 308K
20260502T18Z_MSC_RDPS_DewPointDepression_IsbL-0300_RLatLon0.09_PT018H.grib2 2026-05-02 20:43 329K
20260502T18Z_MSC_RDPS_DewPointDepression_IsbL-0350_RLatLon0.09_PT018H.grib2 2026-05-02 20:43 335K
20260502T18Z_MSC_RDPS_DewPointDepression_IsbL-0400_RLatLon0.09_PT018H.grib2 2026-05-02 20:43 338K
20260502T18Z_MSC_RDPS_DewPointDepression_IsbL-0450_RLatLon0.09_PT018H.grib2 2026-05-02 20:43 342K
20260502T18Z_MSC_RDPS_DewPointDepression_IsbL-0500_RLatLon0.09_PT018H.grib2 2026-05-02 20:43 349K
20260502T18Z_MSC_RDPS_DewPointDepression_IsbL-0550_RLatLon0.09_PT018H.grib2 2026-05-02 20:43 359K
20260502T18Z_MSC_RDPS_DewPointDepression_IsbL-0600_RLatLon0.09_PT018H.grib2 2026-05-02 20:43 365K
20260502T18Z_MSC_RDPS_DewPointDepression_IsbL-0650_RLatLon0.09_PT018H.grib2 2026-05-02 20:43 371K
20260502T18Z_MSC_RDPS_DewPointDepression_IsbL-0700_RLatLon0.09_PT018H.grib2 2026-05-02 20:43 384K
20260502T18Z_MSC_RDPS_DewPointDepression_IsbL-0750_RLatLon0.09_PT018H.grib2 2026-05-02 20:43 403K
20260502T18Z_MSC_RDPS_DewPointDepression_IsbL-0800_RLatLon0.09_PT018H.grib2 2026-05-02 20:43 439K
20260502T18Z_MSC_RDPS_DewPointDepression_IsbL-0850_RLatLon0.09_PT018H.grib2 2026-05-02 20:43 473K
20260502T18Z_MSC_RDPS_DewPointDepression_IsbL-0875_RLatLon0.09_PT018H.grib2 2026-05-02 20:43 473K
20260502T18Z_MSC_RDPS_DewPointDepression_IsbL-0900_RLatLon0.09_PT018H.grib2 2026-05-02 20:43 459K
20260502T18Z_MSC_RDPS_DewPointDepression_IsbL-0925_RLatLon0.09_PT018H.grib2 2026-05-02 20:43 445K
20260502T18Z_MSC_RDPS_DewPointDepression_IsbL-0950_RLatLon0.09_PT018H.grib2 2026-05-02 20:43 442K
20260502T18Z_MSC_RDPS_DewPointDepression_IsbL-0970_RLatLon0.09_PT018H.grib2 2026-05-02 20:43 437K
20260502T18Z_MSC_RDPS_DewPointDepression_IsbL-0985_RLatLon0.09_PT018H.grib2 2026-05-02 20:43 431K
20260502T18Z_MSC_RDPS_DewPointDepression_IsbL-1000_RLatLon0.09_PT018H.grib2 2026-05-02 20:43 428K
20260502T18Z_MSC_RDPS_DewPointDepression_IsbL-1015_RLatLon0.09_PT018H.grib2 2026-05-02 20:43 420K
20260502T18Z_MSC_RDPS_DewPoint_AGL-2m_RLatLon0.09_PT018H.grib2 2026-05-02 20:43 396K
20260502T18Z_MSC_RDPS_DownwardLongwaveRadiationFlux-Accum_Sfc_RLatLon0.09_PT018H.grib2 2026-05-02 20:43 403K
20260502T18Z_MSC_RDPS_DownwardShortwaveRadiationFlux-Accum_NTAtm_RLatLon0.09_PT018H.grib2 2026-05-02 20:43 95K
20260502T18Z_MSC_RDPS_DownwardShortwaveRadiationFlux-Accum_Sfc_RLatLon0.09_PT018H.grib2 2026-05-02 20:43 569K
20260502T18Z_MSC_RDPS_FreezingRain-Accum12h_Sfc_RLatLon0.09_PT018H.grib2 2026-05-02 20:43 76K
20260502T18Z_MSC_RDPS_FreezingRain-Accum1h_Sfc_RLatLon0.09_PT018H.grib2 2026-05-02 20:43 35K
20260502T18Z_MSC_RDPS_FreezingRain-Accum3h_Sfc_RLatLon0.09_PT018H.grib2 2026-05-02 20:43 42K
20260502T18Z_MSC_RDPS_FreezingRain-Accum6h_Sfc_RLatLon0.09_PT018H.grib2 2026-05-02 20:43 66K
20260502T18Z_MSC_RDPS_FreezingRain-Accum_Sfc_RLatLon0.09_PT018H.grib2 2026-05-02 20:43 91K
20260502T18Z_MSC_RDPS_GeopotentialHeight_IsbL-0001_RLatLon0.09_PT018H.grib2 2026-05-02 20:43 342K
20260502T18Z_MSC_RDPS_GeopotentialHeight_IsbL-0005_RLatLon0.09_PT018H.grib2 2026-05-02 20:43 302K
20260502T18Z_MSC_RDPS_GeopotentialHeight_IsbL-0010_RLatLon0.09_PT018H.grib2 2026-05-02 20:43 304K
20260502T18Z_MSC_RDPS_GeopotentialHeight_IsbL-0020_RLatLon0.09_PT018H.grib2 2026-05-02 20:43 400K
20260502T18Z_MSC_RDPS_GeopotentialHeight_IsbL-0030_RLatLon0.09_PT018H.grib2 2026-05-02 20:43 404K
20260502T18Z_MSC_RDPS_GeopotentialHeight_IsbL-0050_RLatLon0.09_PT018H.grib2 2026-05-02 20:43 310K
20260502T18Z_MSC_RDPS_GeopotentialHeight_IsbL-0100_RLatLon0.09_PT018H.grib2 2026-05-02 20:43 287K
20260502T18Z_MSC_RDPS_GeopotentialHeight_IsbL-0150_RLatLon0.09_PT018H.grib2 2026-05-02 20:43 231K
20260502T18Z_MSC_RDPS_GeopotentialHeight_IsbL-0175_RLatLon0.09_PT018H.grib2 2026-05-02 20:43 233K
20260502T18Z_MSC_RDPS_GeopotentialHeight_IsbL-0200_RLatLon0.09_PT018H.grib2 2026-05-02 20:43 265K
20260502T18Z_MSC_RDPS_GeopotentialHeight_IsbL-0225_RLatLon0.09_PT018H.grib2 2026-05-02 20:43 266K
20260502T18Z_MSC_RDPS_GeopotentialHeight_IsbL-0250_RLatLon0.09_PT018H.grib2 2026-05-02 20:43 267K
20260502T18Z_MSC_RDPS_GeopotentialHeight_IsbL-0275_RLatLon0.09_PT018H.grib2 2026-05-02 20:43 266K
20260502T18Z_MSC_RDPS_GeopotentialHeight_IsbL-0300_RLatLon0.09_PT018H.grib2 2026-05-02 20:43 236K
20260502T18Z_MSC_RDPS_GeopotentialHeight_IsbL-0350_RLatLon0.09_PT018H.grib2 2026-05-02 20:43 231K
20260502T18Z_MSC_RDPS_GeopotentialHeight_IsbL-0400_RLatLon0.09_PT018H.grib2 2026-05-02 20:43 228K
20260502T18Z_MSC_RDPS_GeopotentialHeight_IsbL-0450_RLatLon0.09_PT018H.grib2 2026-05-02 20:43 298K
20260502T18Z_MSC_RDPS_GeopotentialHeight_IsbL-0500_RLatLon0.09_PT018H.grib2 2026-05-02 20:43 293K
20260502T18Z_MSC_RDPS_GeopotentialHeight_IsbL-0550_RLatLon0.09_PT018H.grib2 2026-05-02 20:43 289K
20260502T18Z_MSC_RDPS_GeopotentialHeight_IsbL-0600_RLatLon0.09_PT018H.grib2 2026-05-02 20:43 285K
20260502T18Z_MSC_RDPS_GeopotentialHeight_IsbL-0650_RLatLon0.09_PT018H.grib2 2026-05-02 20:43 284K
20260502T18Z_MSC_RDPS_GeopotentialHeight_IsbL-0700_RLatLon0.09_PT018H.grib2 2026-05-02 20:43 254K
20260502T18Z_MSC_RDPS_GeopotentialHeight_IsbL-0750_RLatLon0.09_PT018H.grib2 2026-05-02 20:43 257K
20260502T18Z_MSC_RDPS_GeopotentialHeight_IsbL-0800_RLatLon0.09_PT018H.grib2 2026-05-02 20:43 350K
20260502T18Z_MSC_RDPS_GeopotentialHeight_IsbL-0850_RLatLon0.09_PT018H.grib2 2026-05-02 20:43 359K
20260502T18Z_MSC_RDPS_GeopotentialHeight_IsbL-0875_RLatLon0.09_PT018H.grib2 2026-05-02 20:43 360K
20260502T18Z_MSC_RDPS_GeopotentialHeight_IsbL-0900_RLatLon0.09_PT018H.grib2 2026-05-02 20:43 365K
20260502T18Z_MSC_RDPS_GeopotentialHeight_IsbL-0925_RLatLon0.09_PT018H.grib2 2026-05-02 20:43 369K
20260502T18Z_MSC_RDPS_GeopotentialHeight_IsbL-0950_RLatLon0.09_PT018H.grib2 2026-05-02 20:43 372K
20260502T18Z_MSC_RDPS_GeopotentialHeight_IsbL-0970_RLatLon0.09_PT018H.grib2 2026-05-02 20:43 377K
20260502T18Z_MSC_RDPS_GeopotentialHeight_IsbL-0985_RLatLon0.09_PT018H.grib2 2026-05-02 20:43 385K
20260502T18Z_MSC_RDPS_GeopotentialHeight_IsbL-1000_RLatLon0.09_PT018H.grib2 2026-05-02 20:43 397K
20260502T18Z_MSC_RDPS_GeopotentialHeight_IsbL-1015_RLatLon0.09_PT018H.grib2 2026-05-02 20:43 413K
20260502T18Z_MSC_RDPS_Humidex_Sfc_RLatLon0.09_PT018H.grib2 2026-05-02 20:43 2.4M
20260502T18Z_MSC_RDPS_IcePellets-Accum12h_Sfc_RLatLon0.09_PT018H.grib2 2026-05-02 20:43 7.0K
20260502T18Z_MSC_RDPS_IcePellets-Accum1h_Sfc_RLatLon0.09_PT018H.grib2 2026-05-02 20:43 3.0K
20260502T18Z_MSC_RDPS_IcePellets-Accum3h_Sfc_RLatLon0.09_PT018H.grib2 2026-05-02 20:43 4.1K
20260502T18Z_MSC_RDPS_IcePellets-Accum6h_Sfc_RLatLon0.09_PT018H.grib2 2026-05-02 20:43 4.9K
20260502T18Z_MSC_RDPS_IcePellets-Accum_Sfc_RLatLon0.09_PT018H.grib2 2026-05-02 20:43 11K
20260502T18Z_MSC_RDPS_KIndex_Sfc_RLatLon0.09_PT018H.grib2 2026-05-02 20:43 2.4M
20260502T18Z_MSC_RDPS_LatentHeatNetFlux_Sfc_RLatLon0.09_PT018H.grib2 2026-05-02 20:43 428K
20260502T18Z_MSC_RDPS_LiftedIndex-MU-VT_IsbL-0500_RLatLon0.09_PT018H.grib2 2026-05-02 20:43 2.4M
20260502T18Z_MSC_RDPS_NetLongwaveRadiationFlux-Accum_Sfc_RLatLon0.09_PT018H.grib2 2026-05-02 20:43 539K
20260502T18Z_MSC_RDPS_NetShortwaveRadiationFlux-Accum_Sfc_RLatLon0.09_PT018H.grib2 2026-05-02 20:43 561K
20260502T18Z_MSC_RDPS_PlanetaryBoundaryLayerHeight_Sfc_RLatLon0.09_PT018H.grib2 2026-05-02 20:43 1.1M
20260502T18Z_MSC_RDPS_Precip-Accum12h_Sfc_RLatLon0.09_PT018H.grib2 2026-05-02 20:43 1.6M
20260502T18Z_MSC_RDPS_Precip-Accum1h_Sfc_RLatLon0.09_PT018H.grib2 2026-05-02 20:43 1.3M
20260502T18Z_MSC_RDPS_Precip-Accum3h_Sfc_RLatLon0.09_PT018H.grib2 2026-05-02 20:43 1.4M
20260502T18Z_MSC_RDPS_Precip-Accum6h_Sfc_RLatLon0.09_PT018H.grib2 2026-05-02 20:43 1.5M
20260502T18Z_MSC_RDPS_Precip-Accum_Sfc_RLatLon0.09_PT018H.grib2 2026-05-02 20:43 1.7M
20260502T18Z_MSC_RDPS_PrecipRate_Sfc_RLatLon0.09_PT018H.grib2 2026-05-02 20:43 180K
20260502T18Z_MSC_RDPS_PrecipType-Instant_Sfc_RLatLon0.09_PT018H.grib2 2026-05-02 20:43 592K
20260502T18Z_MSC_RDPS_Pressure-Trend3h_Sfc_RLatLon0.09_PT018H.grib2 2026-05-02 20:43 1.2M
20260502T18Z_MSC_RDPS_Pressure_MSL_RLatLon0.09_PT018H.grib2 2026-05-02 20:43 327K
20260502T18Z_MSC_RDPS_Pressure_PVU-1.5_RLatLon0.09_PT018H.grib2 2026-05-02 20:43 2.3M
20260502T18Z_MSC_RDPS_Pressure_PVU-1_RLatLon0.09_PT018H.grib2 2026-05-02 20:43 2.4M
20260502T18Z_MSC_RDPS_Pressure_PVU-2_RLatLon0.09_PT018H.grib2 2026-05-02 20:43 2.4M
20260502T18Z_MSC_RDPS_Pressure_Sfc_RLatLon0.09_PT018H.grib2 2026-05-02 20:43 502K
20260502T18Z_MSC_RDPS_RadiativeTemp_Sfc_RLatLon0.09_PT018H.grib2 2026-05-02 20:43 303K
20260502T18Z_MSC_RDPS_Rain-Accum12h_Sfc_RLatLon0.09_PT018H.grib2 2026-05-02 20:43 1.1M
20260502T18Z_MSC_RDPS_Rain-Accum1h_Sfc_RLatLon0.09_PT018H.grib2 2026-05-02 20:43 631K
20260502T18Z_MSC_RDPS_Rain-Accum3h_Sfc_RLatLon0.09_PT018H.grib2 2026-05-02 20:43 716K
20260502T18Z_MSC_RDPS_Rain-Accum6h_Sfc_RLatLon0.09_PT018H.grib2 2026-05-02 20:43 1.0M
20260502T18Z_MSC_RDPS_Rain-Accum_Sfc_RLatLon0.09_PT018H.grib2 2026-05-02 20:43 1.3M
20260502T18Z_MSC_RDPS_RelativeHumidity_AGL-2m_RLatLon0.09_PT018H.grib2 2026-05-02 20:43 1.0M
20260502T18Z_MSC_RDPS_RelativeHumidity_IsbL-0010_RLatLon0.09_PT018H.grib2 2026-05-02 20:43 636K
20260502T18Z_MSC_RDPS_RelativeHumidity_IsbL-0020_RLatLon0.09_PT018H.grib2 2026-05-02 20:43 677K
20260502T18Z_MSC_RDPS_RelativeHumidity_IsbL-0030_RLatLon0.09_PT018H.grib2 2026-05-02 20:43 603K
20260502T18Z_MSC_RDPS_RelativeHumidity_IsbL-0050_RLatLon0.09_PT018H.grib2 2026-05-02 20:43 358K
20260502T18Z_MSC_RDPS_RelativeHumidity_IsbL-0100_RLatLon0.09_PT018H.grib2 2026-05-02 20:43 281K
20260502T18Z_MSC_RDPS_RelativeHumidity_IsbL-0150_RLatLon0.09_PT018H.grib2 2026-05-02 20:43 420K
20260502T18Z_MSC_RDPS_RelativeHumidity_IsbL-0175_RLatLon0.09_PT018H.grib2 2026-05-02 20:43 478K
20260502T18Z_MSC_RDPS_RelativeHumidity_IsbL-0200_RLatLon0.09_PT018H.grib2 2026-05-02 20:43 555K
20260502T18Z_MSC_RDPS_RelativeHumidity_IsbL-0225_RLatLon0.09_PT018H.grib2 2026-05-02 20:43 619K
20260502T18Z_MSC_RDPS_RelativeHumidity_IsbL-0250_RLatLon0.09_PT018H.grib2 2026-05-02 20:43 681K
20260502T18Z_MSC_RDPS_RelativeHumidity_IsbL-0275_RLatLon0.09_PT018H.grib2 2026-05-02 20:43 709K
20260502T18Z_MSC_RDPS_RelativeHumidity_IsbL-0300_RLatLon0.09_PT018H.grib2 2026-05-02 20:43 752K
20260502T18Z_MSC_RDPS_RelativeHumidity_IsbL-0350_RLatLon0.09_PT018H.grib2 2026-05-02 20:43 779K
20260502T18Z_MSC_RDPS_RelativeHumidity_IsbL-0400_RLatLon0.09_PT018H.grib2 2026-05-02 20:43 786K
20260502T18Z_MSC_RDPS_RelativeHumidity_IsbL-0450_RLatLon0.09_PT018H.grib2 2026-05-02 20:43 789K
20260502T18Z_MSC_RDPS_RelativeHumidity_IsbL-0500_RLatLon0.09_PT018H.grib2 2026-05-02 20:43 797K
20260502T18Z_MSC_RDPS_RelativeHumidity_IsbL-0550_RLatLon0.09_PT018H.grib2 2026-05-02 20:43 824K
20260502T18Z_MSC_RDPS_RelativeHumidity_IsbL-0600_RLatLon0.09_PT018H.grib2 2026-05-02 20:43 838K
20260502T18Z_MSC_RDPS_RelativeHumidity_IsbL-0650_RLatLon0.09_PT018H.grib2 2026-05-02 20:43 842K
20260502T18Z_MSC_RDPS_RelativeHumidity_IsbL-0700_RLatLon0.09_PT018H.grib2 2026-05-02 20:43 879K
20260502T18Z_MSC_RDPS_RelativeHumidity_IsbL-0750_RLatLon0.09_PT018H.grib2 2026-05-02 20:43 920K
20260502T18Z_MSC_RDPS_RelativeHumidity_IsbL-0800_RLatLon0.09_PT018H.grib2 2026-05-02 20:43 1.0M
20260502T18Z_MSC_RDPS_RelativeHumidity_IsbL-0850_RLatLon0.09_PT018H.grib2 2026-05-02 20:43 1.0M
20260502T18Z_MSC_RDPS_RelativeHumidity_IsbL-0875_RLatLon0.09_PT018H.grib2 2026-05-02 20:43 1.1M
20260502T18Z_MSC_RDPS_RelativeHumidity_IsbL-0900_RLatLon0.09_PT018H.grib2 2026-05-02 20:43 1.1M
20260502T18Z_MSC_RDPS_RelativeHumidity_IsbL-0925_RLatLon0.09_PT018H.grib2 2026-05-02 20:43 1.1M
20260502T18Z_MSC_RDPS_RelativeHumidity_IsbL-0950_RLatLon0.09_PT018H.grib2 2026-05-02 20:43 1.1M
20260502T18Z_MSC_RDPS_RelativeHumidity_IsbL-0970_RLatLon0.09_PT018H.grib2 2026-05-02 20:43 1.1M
20260502T18Z_MSC_RDPS_RelativeHumidity_IsbL-0985_RLatLon0.09_PT018H.grib2 2026-05-02 20:43 1.0M
20260502T18Z_MSC_RDPS_RelativeHumidity_IsbL-1000_RLatLon0.09_PT018H.grib2 2026-05-02 20:43 1.0M
20260502T18Z_MSC_RDPS_RelativeHumidity_IsbL-1015_RLatLon0.09_PT018H.grib2 2026-05-02 20:43 1.0M
20260502T18Z_MSC_RDPS_Runoff-Accum_Sfc_RLatLon0.09_PT018H.grib2 2026-05-02 20:43 62K
20260502T18Z_MSC_RDPS_SWEATIndex_Sfc_RLatLon0.09_PT018H.grib2 2026-05-02 20:43 2.4M
20260502T18Z_MSC_RDPS_SeeingIndex_EAtm_RLatLon0.09_PT018H.grib2 2026-05-02 20:43 1.0M
20260502T18Z_MSC_RDPS_SensibleHeatNetFlux_Sfc_RLatLon0.09_PT018H.grib2 2026-05-02 20:43 309K
20260502T18Z_MSC_RDPS_ShowalterIndex_IsbL-0500_RLatLon0.09_PT018H.grib2 2026-05-02 20:43 2.6M
20260502T18Z_MSC_RDPS_SkyTransparencyIndex_EAtm_RLatLon0.09_PT018H.grib2 2026-05-02 20:43 708K
20260502T18Z_MSC_RDPS_Snow-Accum12h_Sfc_RLatLon0.09_PT018H.grib2 2026-05-02 20:43 614K
20260502T18Z_MSC_RDPS_Snow-Accum1h_Sfc_RLatLon0.09_PT018H.grib2 2026-05-02 20:43 514K
20260502T18Z_MSC_RDPS_Snow-Accum3h_Sfc_RLatLon0.09_PT018H.grib2 2026-05-02 20:43 475K
20260502T18Z_MSC_RDPS_Snow-Accum6h_Sfc_RLatLon0.09_PT018H.grib2 2026-05-02 20:43 578K
20260502T18Z_MSC_RDPS_Snow-Accum_Sfc_RLatLon0.09_PT018H.grib2 2026-05-02 20:43 648K
20260502T18Z_MSC_RDPS_SnowDensity_Sfc_RLatLon0.09_PT018H.grib2 2026-05-02 20:43 167K
20260502T18Z_MSC_RDPS_SnowDepth_Sfc_RLatLon0.09_PT018H.grib2 2026-05-02 20:43 651K
20260502T18Z_MSC_RDPS_SoilTemp_DBS-0to10cm_RLatLon0.09_PT018H.grib2 2026-05-02 20:43 220K
20260502T18Z_MSC_RDPS_SoilTemp_Sfc_RLatLon0.09_PT018H.grib2 2026-05-02 20:43 284K
20260502T18Z_MSC_RDPS_SoilVolumetricIceContent_Sfc_RLatLon0.09_PT018H.grib2 2026-05-02 20:43 158K
20260502T18Z_MSC_RDPS_SoilVolumetricWaterContent_DBS-0to10cm_RLatLon0.09_PT018H.grib2 2026-05-02 20:43 273K
20260502T18Z_MSC_RDPS_SoilVolumetricWaterContent_DBS-0to1cm_RLatLon0.09_PT018H.grib2 2026-05-02 20:43 339K
20260502T18Z_MSC_RDPS_SpecificHumidity_AGL-120m_RLatLon0.09_PT018H.grib2 2026-05-02 20:43 492K
20260502T18Z_MSC_RDPS_SpecificHumidity_AGL-2m_RLatLon0.09_PT018H.grib2 2026-05-02 20:43 657K
20260502T18Z_MSC_RDPS_SpecificHumidity_AGL-40m_RLatLon0.09_PT018H.grib2 2026-05-02 20:43 498K
20260502T18Z_MSC_RDPS_SpecificHumidity_AGL-80m_RLatLon0.09_PT018H.grib2 2026-05-02 20:43 494K
20260502T18Z_MSC_RDPS_SpecificHumidity_IsbL-0001_RLatLon0.09_PT018H.grib2 2026-05-02 20:43 354K
20260502T18Z_MSC_RDPS_SpecificHumidity_IsbL-0005_RLatLon0.09_PT018H.grib2 2026-05-02 20:43 365K
20260502T18Z_MSC_RDPS_SpecificHumidity_IsbL-0010_RLatLon0.09_PT018H.grib2 2026-05-02 20:43 399K
20260502T18Z_MSC_RDPS_SpecificHumidity_IsbL-0020_RLatLon0.09_PT018H.grib2 2026-05-02 20:43 380K
20260502T18Z_MSC_RDPS_SpecificHumidity_IsbL-0030_RLatLon0.09_PT018H.grib2 2026-05-02 20:43 373K
20260502T18Z_MSC_RDPS_SpecificHumidity_IsbL-0050_RLatLon0.09_PT018H.grib2 2026-05-02 20:43 489K
20260502T18Z_MSC_RDPS_SpecificHumidity_IsbL-0100_RLatLon0.09_PT018H.grib2 2026-05-02 20:43 425K
20260502T18Z_MSC_RDPS_SpecificHumidity_IsbL-0150_RLatLon0.09_PT018H.grib2 2026-05-02 20:43 459K
20260502T18Z_MSC_RDPS_SpecificHumidity_IsbL-0175_RLatLon0.09_PT018H.grib2 2026-05-02 20:43 543K
20260502T18Z_MSC_RDPS_SpecificHumidity_IsbL-0200_RLatLon0.09_PT018H.grib2 2026-05-02 20:43 458K
20260502T18Z_MSC_RDPS_SpecificHumidity_IsbL-0225_RLatLon0.09_PT018H.grib2 2026-05-02 20:43 457K
20260502T18Z_MSC_RDPS_SpecificHumidity_IsbL-0250_RLatLon0.09_PT018H.grib2 2026-05-02 20:43 558K
20260502T18Z_MSC_RDPS_SpecificHumidity_IsbL-0275_RLatLon0.09_PT018H.grib2 2026-05-02 20:43 475K
20260502T18Z_MSC_RDPS_SpecificHumidity_IsbL-0300_RLatLon0.09_PT018H.grib2 2026-05-02 20:43 574K
20260502T18Z_MSC_RDPS_SpecificHumidity_IsbL-0350_RLatLon0.09_PT018H.grib2 2026-05-02 20:43 546K
20260502T18Z_MSC_RDPS_SpecificHumidity_IsbL-0400_RLatLon0.09_PT018H.grib2 2026-05-02 20:43 521K
20260502T18Z_MSC_RDPS_SpecificHumidity_IsbL-0450_RLatLon0.09_PT018H.grib2 2026-05-02 20:43 569K
20260502T18Z_MSC_RDPS_SpecificHumidity_IsbL-0500_RLatLon0.09_PT018H.grib2 2026-05-02 20:43 505K
20260502T18Z_MSC_RDPS_SpecificHumidity_IsbL-0550_RLatLon0.09_PT018H.grib2 2026-05-02 20:43 559K
20260502T18Z_MSC_RDPS_SpecificHumidity_IsbL-0600_RLatLon0.09_PT018H.grib2 2026-05-02 20:43 625K
20260502T18Z_MSC_RDPS_SpecificHumidity_IsbL-0650_RLatLon0.09_PT018H.grib2 2026-05-02 20:43 541K
20260502T18Z_MSC_RDPS_SpecificHumidity_IsbL-0700_RLatLon0.09_PT018H.grib2 2026-05-02 20:43 585K
20260502T18Z_MSC_RDPS_SpecificHumidity_IsbL-0750_RLatLon0.09_PT018H.grib2 2026-05-02 20:43 640K
20260502T18Z_MSC_RDPS_SpecificHumidity_IsbL-0800_RLatLon0.09_PT018H.grib2 2026-05-02 20:43 714K
20260502T18Z_MSC_RDPS_SpecificHumidity_IsbL-0850_RLatLon0.09_PT018H.grib2 2026-05-02 20:43 802K
20260502T18Z_MSC_RDPS_SpecificHumidity_IsbL-0875_RLatLon0.09_PT018H.grib2 2026-05-02 20:43 830K
20260502T18Z_MSC_RDPS_SpecificHumidity_IsbL-0900_RLatLon0.09_PT018H.grib2 2026-05-02 20:43 839K
20260502T18Z_MSC_RDPS_SpecificHumidity_IsbL-0925_RLatLon0.09_PT018H.grib2 2026-05-02 20:43 835K
20260502T18Z_MSC_RDPS_SpecificHumidity_IsbL-0950_RLatLon0.09_PT018H.grib2 2026-05-02 20:43 839K
20260502T18Z_MSC_RDPS_SpecificHumidity_IsbL-0970_RLatLon0.09_PT018H.grib2 2026-05-02 20:43 832K
20260502T18Z_MSC_RDPS_SpecificHumidity_IsbL-0985_RLatLon0.09_PT018H.grib2 2026-05-02 20:43 685K
20260502T18Z_MSC_RDPS_SpecificHumidity_IsbL-1000_RLatLon0.09_PT018H.grib2 2026-05-02 20:43 680K
20260502T18Z_MSC_RDPS_SpecificHumidity_IsbL-1015_RLatLon0.09_PT018H.grib2 2026-05-02 20:43 670K
20260502T18Z_MSC_RDPS_SpecificHumidity_Sfc_RLatLon0.09_PT018H.grib2 2026-05-02 20:43 294K
20260502T18Z_MSC_RDPS_StormRelativeHelicity_EtaL-10000_RLatLon0.09_PT018H.grib2 2026-05-02 20:43 1.1M
20260502T18Z_MSC_RDPS_StormSeverityIndex_EtaL-10000_RLatLon0.09_PT018H.grib2 2026-05-02 20:43 1.1M
20260502T18Z_MSC_RDPS_Thickness_IsbL-0850to0700_RLatLon0.09_PT018H.grib2 2026-05-02 20:43 177K
20260502T18Z_MSC_RDPS_Thickness_IsbL-1000to0500_RLatLon0.09_PT018H.grib2 2026-05-02 20:43 196K
20260502T18Z_MSC_RDPS_Thickness_IsbL-1000to0850_RLatLon0.09_PT018H.grib2 2026-05-02 20:43 263K
20260502T18Z_MSC_RDPS_TotalCloudCover_Sfc_RLatLon0.09_PT018H.grib2 2026-05-02 20:43 669K
20260502T18Z_MSC_RDPS_TotalTotalsIndex_Sfc_RLatLon0.09_PT018H.grib2 2026-05-02 20:43 2.3M
20260502T18Z_MSC_RDPS_UVIndex-ClearSky_Sfc_RLatLon0.09_PT018H.grib2 2026-05-02 20:43 143K
20260502T18Z_MSC_RDPS_UVIndex_Sfc_RLatLon0.09_PT018H.grib2 2026-05-02 20:43 346K
20260502T18Z_MSC_RDPS_UpwardLongwaveRadiationFlux_NTAtm_RLatLon0.09_PT018H.grib2 2026-05-02 20:43 493K
20260502T18Z_MSC_RDPS_UpwardShortwaveRadiationFlux_NTAtm_RLatLon0.09_PT018H.grib2 2026-05-02 20:43 310K
20260502T18Z_MSC_RDPS_VerticalVelocity_IsbL-0250_RLatLon0.09_PT018H.grib2 2026-05-02 20:43 556K
20260502T18Z_MSC_RDPS_VerticalVelocity_IsbL-0500_RLatLon0.09_PT018H.grib2 2026-05-02 20:43 544K
20260502T18Z_MSC_RDPS_VerticalVelocity_IsbL-0700_RLatLon0.09_PT018H.grib2 2026-05-02 20:43 593K
20260502T18Z_MSC_RDPS_VerticalVelocity_IsbL-0850_RLatLon0.09_PT018H.grib2 2026-05-02 20:43 704K
20260502T18Z_MSC_RDPS_VerticalWindShear_EtaL-6500_RLatLon0.09_PT018H.grib2 2026-05-02 20:43 1.2M
20260502T18Z_MSC_RDPS_WindChill_Sfc_RLatLon0.09_PT018H.grib2 2026-05-02 20:43 1.2M
20260502T18Z_MSC_RDPS_WindDir_AGL-10m_RLatLon0.09_PT018H.grib2 2026-05-02 20:43 1.0M
20260502T18Z_MSC_RDPS_WindDir_AGL-120m_RLatLon0.09_PT018H.grib2 2026-05-02 20:43 614K
20260502T18Z_MSC_RDPS_WindDir_AGL-40m_RLatLon0.09_PT018H.grib2 2026-05-02 20:43 648K
20260502T18Z_MSC_RDPS_WindDir_AGL-80m_RLatLon0.09_PT018H.grib2 2026-05-02 20:43 627K
20260502T18Z_MSC_RDPS_WindDir_IsbL-0001_RLatLon0.09_PT018H.grib2 2026-05-02 20:43 309K
20260502T18Z_MSC_RDPS_WindDir_IsbL-0005_RLatLon0.09_PT018H.grib2 2026-05-02 20:43 382K
20260502T18Z_MSC_RDPS_WindDir_IsbL-0010_RLatLon0.09_PT018H.grib2 2026-05-02 20:43 385K
20260502T18Z_MSC_RDPS_WindDir_IsbL-0020_RLatLon0.09_PT018H.grib2 2026-05-02 20:43 438K
20260502T18Z_MSC_RDPS_WindDir_IsbL-0030_RLatLon0.09_PT018H.grib2 2026-05-02 20:43 425K
20260502T18Z_MSC_RDPS_WindDir_IsbL-0050_RLatLon0.09_PT018H.grib2 2026-05-02 20:43 415K
20260502T18Z_MSC_RDPS_WindDir_IsbL-0100_RLatLon0.09_PT018H.grib2 2026-05-02 20:43 414K
20260502T18Z_MSC_RDPS_WindDir_IsbL-0150_RLatLon0.09_PT018H.grib2 2026-05-02 20:43 418K
20260502T18Z_MSC_RDPS_WindDir_IsbL-0175_RLatLon0.09_PT018H.grib2 2026-05-02 20:43 430K
20260502T18Z_MSC_RDPS_WindDir_IsbL-0200_RLatLon0.09_PT018H.grib2 2026-05-02 20:43 446K
20260502T18Z_MSC_RDPS_WindDir_IsbL-0225_RLatLon0.09_PT018H.grib2 2026-05-02 20:43 456K
20260502T18Z_MSC_RDPS_WindDir_IsbL-0250_RLatLon0.09_PT018H.grib2 2026-05-02 20:43 458K
20260502T18Z_MSC_RDPS_WindDir_IsbL-0275_RLatLon0.09_PT018H.grib2 2026-05-02 20:43 479K
20260502T18Z_MSC_RDPS_WindDir_IsbL-0300_RLatLon0.09_PT018H.grib2 2026-05-02 20:43 482K
20260502T18Z_MSC_RDPS_WindDir_IsbL-0350_RLatLon0.09_PT018H.grib2 2026-05-02 20:43 508K
20260502T18Z_MSC_RDPS_WindDir_IsbL-0400_RLatLon0.09_PT018H.grib2 2026-05-02 20:43 524K
20260502T18Z_MSC_RDPS_WindDir_IsbL-0450_RLatLon0.09_PT018H.grib2 2026-05-02 20:43 535K
20260502T18Z_MSC_RDPS_WindDir_IsbL-0500_RLatLon0.09_PT018H.grib2 2026-05-02 20:43 540K
20260502T18Z_MSC_RDPS_WindDir_IsbL-0550_RLatLon0.09_PT018H.grib2 2026-05-02 20:43 552K
20260502T18Z_MSC_RDPS_WindDir_IsbL-0600_RLatLon0.09_PT018H.grib2 2026-05-02 20:43 573K
20260502T18Z_MSC_RDPS_WindDir_IsbL-0650_RLatLon0.09_PT018H.grib2 2026-05-02 20:43 612K
20260502T18Z_MSC_RDPS_WindDir_IsbL-0700_RLatLon0.09_PT018H.grib2 2026-05-02 20:43 652K
20260502T18Z_MSC_RDPS_WindDir_IsbL-0750_RLatLon0.09_PT018H.grib2 2026-05-02 20:43 700K
20260502T18Z_MSC_RDPS_WindDir_IsbL-0800_RLatLon0.09_PT018H.grib2 2026-05-02 20:43 774K
20260502T18Z_MSC_RDPS_WindDir_IsbL-0850_RLatLon0.09_PT018H.grib2 2026-05-02 20:43 864K
20260502T18Z_MSC_RDPS_WindDir_IsbL-0875_RLatLon0.09_PT018H.grib2 2026-05-02 20:43 897K
20260502T18Z_MSC_RDPS_WindDir_IsbL-0900_RLatLon0.09_PT018H.grib2 2026-05-02 20:43 912K
20260502T18Z_MSC_RDPS_WindDir_IsbL-0925_RLatLon0.09_PT018H.grib2 2026-05-02 20:43 923K
20260502T18Z_MSC_RDPS_WindDir_IsbL-0950_RLatLon0.09_PT018H.grib2 2026-05-02 20:43 926K
20260502T18Z_MSC_RDPS_WindDir_IsbL-0970_RLatLon0.09_PT018H.grib2 2026-05-02 20:43 931K
20260502T18Z_MSC_RDPS_WindDir_IsbL-0985_RLatLon0.09_PT018H.grib2 2026-05-02 20:43 941K
20260502T18Z_MSC_RDPS_WindDir_IsbL-1000_RLatLon0.09_PT018H.grib2 2026-05-02 20:43 956K
20260502T18Z_MSC_RDPS_WindDir_IsbL-1015_RLatLon0.09_PT018H.grib2 2026-05-02 20:43 1.0M
20260502T18Z_MSC_RDPS_WindGust-Max_AGL-10m_RLatLon0.09_PT018H.grib2 2026-05-02 20:43 1.0M
20260502T18Z_MSC_RDPS_WindGust-Min_AGL-10m_RLatLon0.09_PT018H.grib2 2026-05-02 20:43 1.0M
20260502T18Z_MSC_RDPS_WindGust_AGL-10m_RLatLon0.09_PT018H.grib2 2026-05-02 20:43 1.0M
20260502T18Z_MSC_RDPS_WindSpeed_AGL-10m_RLatLon0.09_PT018H.grib2 2026-05-02 20:43 851K
20260502T18Z_MSC_RDPS_WindSpeed_AGL-120m_RLatLon0.09_PT018H.grib2 2026-05-02 20:43 550K
20260502T18Z_MSC_RDPS_WindSpeed_AGL-40m_RLatLon0.09_PT018H.grib2 2026-05-02 20:43 551K
20260502T18Z_MSC_RDPS_WindSpeed_AGL-80m_RLatLon0.09_PT018H.grib2 2026-05-02 20:43 550K
20260502T18Z_MSC_RDPS_WindSpeed_IsbL-0001_RLatLon0.09_PT018H.grib2 2026-05-02 20:43 251K
20260502T18Z_MSC_RDPS_WindSpeed_IsbL-0005_RLatLon0.09_PT018H.grib2 2026-05-02 20:43 340K
20260502T18Z_MSC_RDPS_WindSpeed_IsbL-0010_RLatLon0.09_PT018H.grib2 2026-05-02 20:43 359K
20260502T18Z_MSC_RDPS_WindSpeed_IsbL-0020_RLatLon0.09_PT018H.grib2 2026-05-02 20:43 419K
20260502T18Z_MSC_RDPS_WindSpeed_IsbL-0030_RLatLon0.09_PT018H.grib2 2026-05-02 20:43 321K
20260502T18Z_MSC_RDPS_WindSpeed_IsbL-0050_RLatLon0.09_PT018H.grib2 2026-05-02 20:43 350K
20260502T18Z_MSC_RDPS_WindSpeed_IsbL-0100_RLatLon0.09_PT018H.grib2 2026-05-02 20:43 479K
20260502T18Z_MSC_RDPS_WindSpeed_IsbL-0150_RLatLon0.09_PT018H.grib2 2026-05-02 20:43 387K
20260502T18Z_MSC_RDPS_WindSpeed_IsbL-0175_RLatLon0.09_PT018H.grib2 2026-05-02 20:43 428K
20260502T18Z_MSC_RDPS_WindSpeed_IsbL-0200_RLatLon0.09_PT018H.grib2 2026-05-02 20:43 444K
20260502T18Z_MSC_RDPS_WindSpeed_IsbL-0225_RLatLon0.09_PT018H.grib2 2026-05-02 20:43 452K
20260502T18Z_MSC_RDPS_WindSpeed_IsbL-0250_RLatLon0.09_PT018H.grib2 2026-05-02 20:43 456K
20260502T18Z_MSC_RDPS_WindSpeed_IsbL-0275_RLatLon0.09_PT018H.grib2 2026-05-02 20:43 474K
20260502T18Z_MSC_RDPS_WindSpeed_IsbL-0300_RLatLon0.09_PT018H.grib2 2026-05-02 20:43 470K
20260502T18Z_MSC_RDPS_WindSpeed_IsbL-0350_RLatLon0.09_PT018H.grib2 2026-05-02 20:43 480K
20260502T18Z_MSC_RDPS_WindSpeed_IsbL-0400_RLatLon0.09_PT018H.grib2 2026-05-02 20:43 466K
20260502T18Z_MSC_RDPS_WindSpeed_IsbL-0450_RLatLon0.09_PT018H.grib2 2026-05-02 20:43 465K
20260502T18Z_MSC_RDPS_WindSpeed_IsbL-0500_RLatLon0.09_PT018H.grib2 2026-05-02 20:43 465K
20260502T18Z_MSC_RDPS_WindSpeed_IsbL-0550_RLatLon0.09_PT018H.grib2 2026-05-02 20:43 468K
20260502T18Z_MSC_RDPS_WindSpeed_IsbL-0600_RLatLon0.09_PT018H.grib2 2026-05-02 20:43 594K
20260502T18Z_MSC_RDPS_WindSpeed_IsbL-0650_RLatLon0.09_PT018H.grib2 2026-05-02 20:43 612K
20260502T18Z_MSC_RDPS_WindSpeed_IsbL-0700_RLatLon0.09_PT018H.grib2 2026-05-02 20:43 679K
20260502T18Z_MSC_RDPS_WindSpeed_IsbL-0750_RLatLon0.09_PT018H.grib2 2026-05-02 20:43 712K
20260502T18Z_MSC_RDPS_WindSpeed_IsbL-0800_RLatLon0.09_PT018H.grib2 2026-05-02 20:43 763K
20260502T18Z_MSC_RDPS_WindSpeed_IsbL-0850_RLatLon0.09_PT018H.grib2 2026-05-02 20:43 824K
20260502T18Z_MSC_RDPS_WindSpeed_IsbL-0875_RLatLon0.09_PT018H.grib2 2026-05-02 20:43 846K
20260502T18Z_MSC_RDPS_WindSpeed_IsbL-0900_RLatLon0.09_PT018H.grib2 2026-05-02 20:43 859K
20260502T18Z_MSC_RDPS_WindSpeed_IsbL-0925_RLatLon0.09_PT018H.grib2 2026-05-02 20:43 869K
20260502T18Z_MSC_RDPS_WindSpeed_IsbL-0950_RLatLon0.09_PT018H.grib2 2026-05-02 20:43 869K
20260502T18Z_MSC_RDPS_WindSpeed_IsbL-0970_RLatLon0.09_PT018H.grib2 2026-05-02 20:43 870K
20260502T18Z_MSC_RDPS_WindSpeed_IsbL-0985_RLatLon0.09_PT018H.grib2 2026-05-02 20:43 866K
20260502T18Z_MSC_RDPS_WindSpeed_IsbL-1000_RLatLon0.09_PT018H.grib2 2026-05-02 20:43 860K
20260502T18Z_MSC_RDPS_WindSpeed_IsbL-1015_RLatLon0.09_PT018H.grib2 2026-05-02 20:43 850K
20260502T18Z_MSC_RDPS_WindU_AGL-10m_RLatLon0.09_PT018H.grib2 2026-05-02 20:43 437K
20260502T18Z_MSC_RDPS_WindU_AGL-120m_RLatLon0.09_PT018H.grib2 2026-05-02 20:43 426K
20260502T18Z_MSC_RDPS_WindU_AGL-40m_RLatLon0.09_PT018H.grib2 2026-05-02 20:43 546K
20260502T18Z_MSC_RDPS_WindU_AGL-80m_RLatLon0.09_PT018H.grib2 2026-05-02 20:43 545K
20260502T18Z_MSC_RDPS_WindU_IsbL-0001_RLatLon0.09_PT018H.grib2 2026-05-02 20:43 290K
20260502T18Z_MSC_RDPS_WindU_IsbL-0005_RLatLon0.09_PT018H.grib2 2026-05-02 20:43 278K
20260502T18Z_MSC_RDPS_WindU_IsbL-0010_RLatLon0.09_PT018H.grib2 2026-05-02 20:43 292K
20260502T18Z_MSC_RDPS_WindU_IsbL-0020_RLatLon0.09_PT018H.grib2 2026-05-02 20:43 311K
20260502T18Z_MSC_RDPS_WindU_IsbL-0030_RLatLon0.09_PT018H.grib2 2026-05-02 20:43 351K
20260502T18Z_MSC_RDPS_WindU_IsbL-0050_RLatLon0.09_PT018H.grib2 2026-05-02 20:43 378K
20260502T18Z_MSC_RDPS_WindU_IsbL-0100_RLatLon0.09_PT018H.grib2 2026-05-02 20:43 434K
20260502T18Z_MSC_RDPS_WindU_IsbL-0150_RLatLon0.09_PT018H.grib2 2026-05-02 20:43 401K
20260502T18Z_MSC_RDPS_WindU_IsbL-0175_RLatLon0.09_PT018H.grib2 2026-05-02 20:43 419K
20260502T18Z_MSC_RDPS_WindU_IsbL-0200_RLatLon0.09_PT018H.grib2 2026-05-02 20:43 436K
20260502T18Z_MSC_RDPS_WindU_IsbL-0225_RLatLon0.09_PT018H.grib2 2026-05-02 20:43 344K
20260502T18Z_MSC_RDPS_WindU_IsbL-0250_RLatLon0.09_PT018H.grib2 2026-05-02 20:43 345K
20260502T18Z_MSC_RDPS_WindU_IsbL-0275_RLatLon0.09_PT018H.grib2 2026-05-02 20:43 360K
20260502T18Z_MSC_RDPS_WindU_IsbL-0300_RLatLon0.09_PT018H.grib2 2026-05-02 20:43 356K
20260502T18Z_MSC_RDPS_WindU_IsbL-0350_RLatLon0.09_PT018H.grib2 2026-05-02 20:43 364K
20260502T18Z_MSC_RDPS_WindU_IsbL-0400_RLatLon0.09_PT018H.grib2 2026-05-02 20:43 471K
20260502T18Z_MSC_RDPS_WindU_IsbL-0450_RLatLon0.09_PT018H.grib2 2026-05-02 20:43 471K
20260502T18Z_MSC_RDPS_WindU_IsbL-0500_RLatLon0.09_PT018H.grib2 2026-05-02 20:43 472K
20260502T18Z_MSC_RDPS_WindU_IsbL-0550_RLatLon0.09_PT018H.grib2 2026-05-02 20:43 474K
20260502T18Z_MSC_RDPS_WindU_IsbL-0600_RLatLon0.09_PT018H.grib2 2026-05-02 20:43 481K
20260502T18Z_MSC_RDPS_WindU_IsbL-0650_RLatLon0.09_PT018H.grib2 2026-05-02 20:43 497K
20260502T18Z_MSC_RDPS_WindU_IsbL-0700_RLatLon0.09_PT018H.grib2 2026-05-02 20:43 503K
20260502T18Z_MSC_RDPS_WindU_IsbL-0750_RLatLon0.09_PT018H.grib2 2026-05-02 20:43 532K
20260502T18Z_MSC_RDPS_WindU_IsbL-0800_RLatLon0.09_PT018H.grib2 2026-05-02 20:43 577K
20260502T18Z_MSC_RDPS_WindU_IsbL-0850_RLatLon0.09_PT018H.grib2 2026-05-02 20:43 631K
20260502T18Z_MSC_RDPS_WindU_IsbL-0875_RLatLon0.09_PT018H.grib2 2026-05-02 20:43 650K
20260502T18Z_MSC_RDPS_WindU_IsbL-0900_RLatLon0.09_PT018H.grib2 2026-05-02 20:43 659K
20260502T18Z_MSC_RDPS_WindU_IsbL-0925_RLatLon0.09_PT018H.grib2 2026-05-02 20:43 668K
20260502T18Z_MSC_RDPS_WindU_IsbL-0950_RLatLon0.09_PT018H.grib2 2026-05-02 20:43 666K
20260502T18Z_MSC_RDPS_WindU_IsbL-0970_RLatLon0.09_PT018H.grib2 2026-05-02 20:43 663K
20260502T18Z_MSC_RDPS_WindU_IsbL-0985_RLatLon0.09_PT018H.grib2 2026-05-02 20:43 660K
20260502T18Z_MSC_RDPS_WindU_IsbL-1000_RLatLon0.09_PT018H.grib2 2026-05-02 20:43 797K
20260502T18Z_MSC_RDPS_WindU_IsbL-1015_RLatLon0.09_PT018H.grib2 2026-05-02 20:43 789K
20260502T18Z_MSC_RDPS_WindV_AGL-10m_RLatLon0.09_PT018H.grib2 2026-05-02 20:43 438K
20260502T18Z_MSC_RDPS_WindV_AGL-120m_RLatLon0.09_PT018H.grib2 2026-05-02 20:43 426K
20260502T18Z_MSC_RDPS_WindV_AGL-40m_RLatLon0.09_PT018H.grib2 2026-05-02 20:43 546K
20260502T18Z_MSC_RDPS_WindV_AGL-80m_RLatLon0.09_PT018H.grib2 2026-05-02 20:43 427K
20260502T18Z_MSC_RDPS_WindV_IsbL-0001_RLatLon0.09_PT018H.grib2 2026-05-02 20:43 243K
20260502T18Z_MSC_RDPS_WindV_IsbL-0005_RLatLon0.09_PT018H.grib2 2026-05-02 20:43 367K
20260502T18Z_MSC_RDPS_WindV_IsbL-0010_RLatLon0.09_PT018H.grib2 2026-05-02 20:43 294K
20260502T18Z_MSC_RDPS_WindV_IsbL-0020_RLatLon0.09_PT018H.grib2 2026-05-02 20:43 314K
20260502T18Z_MSC_RDPS_WindV_IsbL-0030_RLatLon0.09_PT018H.grib2 2026-05-02 20:43 313K
20260502T18Z_MSC_RDPS_WindV_IsbL-0050_RLatLon0.09_PT018H.grib2 2026-05-02 20:43 342K
20260502T18Z_MSC_RDPS_WindV_IsbL-0100_RLatLon0.09_PT018H.grib2 2026-05-02 20:43 431K
20260502T18Z_MSC_RDPS_WindV_IsbL-0150_RLatLon0.09_PT018H.grib2 2026-05-02 20:43 402K
20260502T18Z_MSC_RDPS_WindV_IsbL-0175_RLatLon0.09_PT018H.grib2 2026-05-02 20:43 421K
20260502T18Z_MSC_RDPS_WindV_IsbL-0200_RLatLon0.09_PT018H.grib2 2026-05-02 20:43 338K
20260502T18Z_MSC_RDPS_WindV_IsbL-0225_RLatLon0.09_PT018H.grib2 2026-05-02 20:43 368K
20260502T18Z_MSC_RDPS_WindV_IsbL-0250_RLatLon0.09_PT018H.grib2 2026-05-02 20:43 370K
20260502T18Z_MSC_RDPS_WindV_IsbL-0275_RLatLon0.09_PT018H.grib2 2026-05-02 20:43 382K
20260502T18Z_MSC_RDPS_WindV_IsbL-0300_RLatLon0.09_PT018H.grib2 2026-05-02 20:43 379K
20260502T18Z_MSC_RDPS_WindV_IsbL-0350_RLatLon0.09_PT018H.grib2 2026-05-02 20:43 363K
20260502T18Z_MSC_RDPS_WindV_IsbL-0400_RLatLon0.09_PT018H.grib2 2026-05-02 20:43 365K
20260502T18Z_MSC_RDPS_WindV_IsbL-0450_RLatLon0.09_PT018H.grib2 2026-05-02 20:43 365K
20260502T18Z_MSC_RDPS_WindV_IsbL-0500_RLatLon0.09_PT018H.grib2 2026-05-02 20:43 471K
20260502T18Z_MSC_RDPS_WindV_IsbL-0550_RLatLon0.09_PT018H.grib2 2026-05-02 20:43 472K
20260502T18Z_MSC_RDPS_WindV_IsbL-0600_RLatLon0.09_PT018H.grib2 2026-05-02 20:43 477K
20260502T18Z_MSC_RDPS_WindV_IsbL-0650_RLatLon0.09_PT018H.grib2 2026-05-02 20:43 494K
20260502T18Z_MSC_RDPS_WindV_IsbL-0700_RLatLon0.09_PT018H.grib2 2026-05-02 20:43 516K
20260502T18Z_MSC_RDPS_WindV_IsbL-0750_RLatLon0.09_PT018H.grib2 2026-05-02 20:43 543K
20260502T18Z_MSC_RDPS_WindV_IsbL-0800_RLatLon0.09_PT018H.grib2 2026-05-02 20:43 585K
20260502T18Z_MSC_RDPS_WindV_IsbL-0850_RLatLon0.09_PT018H.grib2 2026-05-02 20:43 638K
20260502T18Z_MSC_RDPS_WindV_IsbL-0875_RLatLon0.09_PT018H.grib2 2026-05-02 20:43 649K
20260502T18Z_MSC_RDPS_WindV_IsbL-0900_RLatLon0.09_PT018H.grib2 2026-05-02 20:43 659K
20260502T18Z_MSC_RDPS_WindV_IsbL-0925_RLatLon0.09_PT018H.grib2 2026-05-02 20:43 667K
20260502T18Z_MSC_RDPS_WindV_IsbL-0950_RLatLon0.09_PT018H.grib2 2026-05-02 20:43 665K
20260502T18Z_MSC_RDPS_WindV_IsbL-0970_RLatLon0.09_PT018H.grib2 2026-05-02 20:43 664K
20260502T18Z_MSC_RDPS_WindV_IsbL-0985_RLatLon0.09_PT018H.grib2 2026-05-02 20:43 660K
20260502T18Z_MSC_RDPS_WindV_IsbL-1000_RLatLon0.09_PT018H.grib2 2026-05-02 20:43 796K
20260502T18Z_MSC_RDPS_WindV_IsbL-1015_RLatLon0.09_PT018H.grib2 2026-05-02 20:43 788K